[[{"header":{"parameterUnit":"m.s-1","parameterCategory":1,"la1":30.2991,"la2":30.254,"lo1":-89.0895,"lo2":-89.0444,"dy":0.0017,"dx":0.0017,"nx":28,"ny":28,"refTime":"2024-05-15T03:00:00:Z","depth":0,"parameterNumber":2,"parameterNumberName":"U-component_of_WINDS"},"data":[0,0,0,0,0,0,0,0,0,0,0,0,0,0,0,0,0,0,0,0,0,0,0,0,0,0,0,0,0,0,0,0,0,0,0,0,0,0,0,0,0,0,0,0,0,0,0,0,0,0,0,0,0,0,0,0,0,0,-4.2929,-4.2929,0,-4.3002,-4.3003,-4.3004,-4.2951,-4.2949,-4.2946,-4.2944,-4.3016,-4.302,-4.3024,0,0,0,0,0,0,0,0,0,0,0,0,0,-4.2739,-4.2743,-4.2929,-4.293,-4.293,-4.3002,-4.3003,-4.3004,-4.2951,-4.2949,-4.2946,-4.2943,-4.3014,-4.3019,-4.3024,0,0,0,0,0,0,0,0,0,0,0,0,0,-4.2818,-4.2744,-4.2928,-4.2913,-4.2912,-4.3002,-4.3003,-4.3004,-4.2952,-4.2948,-4.2945,-4.2942,-4.3013,-4.3019,-4.3025,-4.3132,0,0,-4.3043,-4.3046,0,0,0,0,0,0,0,0,-4.2813,-4.2825,-4.2914,-4.2914,-4.2914,-4.2964,-4.2962,-4.3047,-4.2953,-4.2937,-4.2944,-4.294,-4.3001,-4.3008,-4.3029,-4.3135,-4.3139,-4.3044,-4.3048,-4.305,-4.3052,0,0,0,0,0,0,0,-4.2808,-4.2821,-4.2957,-4.2916,-4.2915,-4.2901,-4.2908,-4.2978,-4.2987,-4.2938,-4.2934,-4.2944,-4.3,-4.3023,-4.303,-4.314,-4.3044,-4.3049,-4.3053,-4.3055,-4.3336,-4.334,0,0,0,0,0,0,-4.2805,-4.2817,-4.2955,-4.296,-4.2854,-4.2907,-4.2915,-4.2951,-4.2987,-4.2989,-4.2947,-4.2941,-4.3015,-4.3023,-4.3033,-4.316,-4.305,-4.3056,-4.3059,-4.3332,-4.3337,-4.3341,0,0,0,0,0,0,-4.2801,-4.2817,-4.2952,-4.2888,-4.2904,-4.2914,-4.2955,-4.2954,-4.2978,-4.2993,-4.2994,-4.2969,-4.3012,-4.3024,-4.3108,-4.3161,-4.3059,-4.3064,-4.3328,-4.3334,-4.3339,-4.3415,0,0,0,0,0,0,-4.2796,-4.2816,-4.2858,-4.2889,-4.2907,-4.3027,-4.2958,-4.2958,-4.2989,-4.2982,-4.3014,-4.3016,-4.301,-4.3099,-4.3114,-4.3168,-4.3069,-4.3323,-4.333,-4.3337,-4.3408,-4.3423,-4.3435,0,0,0,0,0,-4.2789,-4.2876,-4.2861,-4.2878,-4.296,-4.3031,-4.3041,-4.3033,-4.2993,-4.3035,-4.3045,-4.3015,-4.3154,-4.3108,-4.3124,-4.3181,-4.332,-4.3328,-4.3337,-4.3401,-4.342,-4.3435,0,0,0,0,0,0,-4.285,-4.288,-4.2863,-4.2963,-4.2995,-4.3022,-4.3074,-4.3053,-4.3096,-4.3087,-4.3075,-4.3083,-4.317,-4.3184,-4.3133,-4.3286,-4.323,-4.3242,-4.3274,-4.3291,-4.3305,-4.3299,-4.3074,0,0,0,0,0,-4.2876,-4.2932,-4.2954,-4.304,-4.3057,-4.3063,-4.3093,-4.3085,-4.3117,-4.3129,-4.3145,-4.3176,-4.3226,-4.326,-4.3307,-4.341,-4.3415,-4.3457,-4.3471,-4.3482,-4.3492,-4.3546,-4.3564,-4.3369,-4.3369,-4.3369,0,0,-4.2928,-4.2952,-4.2987,-4.3053,-4.3077,-4.3134,-4.3074,-4.3137,-4.3179,-4.3138,-4.3218,-4.3231,-4.3265,-4.3358,-4.34,-4.3373,-4.3547,-4.3493,-4.3502,-4.3506,-4.3557,-4.3575,-4.3592,-4.3375,-4.3374,-4.3373,0,0,-4.3053,-4.3077,-4.3151,-4.3176,-4.3213,-4.3216,-4.3234,-4.3264,-4.3271,-4.3351,-4.3322,-4.3371,-4.3458,-4.3483,-4.3507,-4.3641,-4.3615,-4.3656,-4.3728,-4.378,-4.3796,-4.3809,-4.3855,-4.3872,-4.3667,-4.3667,-4.3667,0,-4.3113,-4.3199,-4.3191,-4.3256,-4.3285,-4.3253,-4.3326,-4.335,-4.34,-4.3421,-4.3389,-4.3497,-4.3518,-4.3616,-4.3649,-4.367,-4.3688,-4.3652,-4.3795,-4.3808,-4.382,-4.3864,-4.3882,-4.3672,-4.3671,-4.3671,-4.367,0,-4.3271,-4.333,-4.3385,-4.3435,-4.3471,-4.354,-4.3541,-4.3577,-4.3566,-4.3572,-4.3653,-4.3677,-4.3728,-4.3751,-4.374,-4.3847,-4.3828,-4.3796,-4.3739,-4.3844,-4.3885,-4.3902,-4.3678,-4.3677,-4.3675,-4.3674,0,0,-4.3435,-4.348,-4.35,-4.3522,-4.356,-4.3606,-4.3673,-4.3723,-4.3754,-4.379,-4.3845,-4.3919,-4.3889,-4.3917,-4.3908,-4.3955,-4.4058,-4.3917,-4.3917,-4.3941,-4.4175,-4.4198,-4.4218,-4.4041,-4.4045,-4.4047,-4.4172,0,-4.3561,-4.3679,-4.3673,-4.3783,-4.3837,-4.3807,-4.3865,-4.3894,-4.3902,-4.3947,-4.3955,-4.4008,-4.3965,-4.3981,-4.4026,-4.4036,-4.4104,-4.4027,-4.409,-4.4093,-4.4081,-4.4239,-4.4264,-4.4381,-4.4188,-4.4191,-4.4193,0,-4.3723,-4.3764,-4.388,-4.3909,-4.3932,-4.3985,-4.403,-4.4075,-4.4107,-4.4109,-4.414,-4.4123,-4.4189,-4.4132,-4.4222,-4.417,-4.4195,-4.4204,-4.4208,-4.4212,-4.4148,-4.4246,-4.4418,-4.4435,-4.4218,-4.4216,-4.4214,0,-4.3829,-4.3914,-4.3994,-4.4014,-4.4051,-4.4088,-4.4105,-4.4133,-4.4164,-4.4203,-4.4223,-4.4269,-4.4294,-4.433,-4.4326,-4.4285,-4.4417,-4.436,-4.4419,-4.4419,-4.4447,-4.4445,-4.4623,-4.4466,-4.4466,-4.4466,-4.4465,0,-4.3969,-4.404,-4.4042,-4.4091,-4.417,-4.4163,-4.424,-4.4253,-4.4278,-4.4328,-4.4305,-4.4351,-4.4344,-4.4391,-4.4388,-4.4462,-4.4474,-4.4476,-4.4474,-4.4478,-4.4477,-4.4493,-4.4484,-4.447,-4.4469,-4.4468,-4.4468,0,-4.41,-4.4105,-4.419,-4.4218,-4.4227,-4.4283,-4.4306,-4.4352,-4.4358,-4.4421,-4.4435,-4.4444,-4.4497,-4.4497,-4.4558,-4.4556,-4.4646,-4.4636,-4.4636,-4.4633,-4.4692,-4.4686,-4.4885,-4.491,-4.4739,-4.4741,-4.4742,0,-4.4189,-4.4243,-4.4277,-4.4309,-4.4329,-4.4381,-4.4412,-4.4406,-4.444,-4.448,-4.452,-4.4572,-4.4612,-4.4699,-4.471,-4.4756,-4.4746,-4.4812,-4.4752,-4.4753,-4.4744,-4.4741,-4.4745,-4.4824,-4.4825,-4.4827,-4.4828,0,-4.4344,-4.4344,-4.439,-4.4438,-4.4476,-4.4513,-4.4546,-4.4574,-4.4572,-4.461,-4.4665,-4.4697,-4.476,-4.481,-4.4855,-4.487,-4.4849,-4.4847,-4.4863,-4.4866,-4.4863,-4.4864,-4.4666,-4.4842,-4.4841,-4.484,-4.4839,-4.4839,-4.4456,-4.4502,-4.4533,-4.4585,-4.461,-4.4643,-4.4687,-4.4698,-4.4744,-4.4795,-4.4789,-4.485,-4.4879,-4.4937,-4.4956,-4.5003,-4.4979,-4.5003,-4.5008,-4.5014,-4.5019,-4.4857,-4.5011,-4.5011,-4.501,-4.501,-4.501,0,-4.4608,-4.4627,-4.4675,-4.4724,-4.4765,-4.4742,-4.4778,-4.4813,-4.4868,-4.4897,-4.4938,-4.5001,-4.505,-4.5065,-4.5112,-4.5146,-4.5137,-4.5158,-4.5155,-4.5158,-4.5038,-4.5019,-4.5165,-4.5165,-4.5165,-4.5165,-4.5165,-4.5165,-4.4693,-4.4769,-4.4773,-4.4861,-4.4879,-4.4939,-4.4962,-4.499,-4.5014,-4.5085,-4.5126,-4.5136,-4.5159,-4.5208,-4.5251,-4.5254,-4.5272,-4.5297,-4.5296,-4.5183,-4.5167,-4.5152,-4.5134,-4.5301,-4.5301,-4.5411,-4.5413,-4.5413]},{"header":{"parameterUnit":"m.s-1","parameterCategory":1,"la1":30.2991,"la2":30.254,"lo1":-89.0895,"lo2":-89.0444,"dy":0.0017,"dx":0.0017,"nx":28,"ny":28,"refTime":"2024-05-15T03:00:00:Z","depth":0,"parameterNumber":3,"parameterNumberName":"V-component_of_WINDS"},"data":[0,0,0,0,0,0,0,0,0,0,0,0,0,0,0,0,0,0,0,0,0,0,0,0,0,0,0,0,0,0,0,0,0,0,0,0,0,0,0,0,0,0,0,0,0,0,0,0,0,0,0,0,0,0,0,0,0,0,3.957,3.9569,0,3.9547,3.9547,3.9547,3.947,3.9469,3.9467,3.9465,3.9444,3.9445,3.9446,0,0,0,0,0,0,0,0,0,0,0,0,0,3.9549,3.9549,3.957,3.9569,3.9569,3.9547,3.9547,3.9546,3.9471,3.9468,3.9466,3.9464,3.9444,3.9445,3.9446,0,0,0,0,0,0,0,0,0,0,0,0,0,3.9545,3.955,3.957,3.9528,3.9524,3.9547,3.9547,3.9546,3.9471,3.9468,3.9466,3.9463,3.9443,3.9445,3.9446,3.9508,0,0,3.9451,3.9452,0,0,0,0,0,0,0,0,3.9545,3.9546,3.9535,3.9531,3.9527,3.9509,3.9531,3.9533,3.9472,3.9491,3.9465,3.9462,3.9468,3.9467,3.9469,3.9507,3.9506,3.9451,3.9452,3.9453,3.9453,0,0,0,0,0,0,0,3.9546,3.9547,3.9561,3.9535,3.953,3.9512,3.9508,3.9532,3.9494,3.9489,3.9484,3.9482,3.9465,3.9467,3.9468,3.9505,3.9451,3.9453,3.9454,3.9454,3.9592,3.9595,0,0,0,0,0,0,3.9552,3.9547,3.9561,3.956,3.953,3.9514,3.951,3.9517,3.9494,3.9488,3.9484,3.9479,3.9466,3.9466,3.9467,3.9536,3.9453,3.9454,3.9455,3.959,3.9593,3.9596,0,0,0,0,0,0,3.9551,3.9554,3.9562,3.9552,3.9552,3.9517,3.9526,3.9518,3.952,3.949,3.9483,3.9493,3.9464,3.9464,3.9498,3.9535,3.9455,3.9457,3.9586,3.9591,3.9594,3.9677,0,0,0,0,0,0,3.9551,3.9554,3.9577,3.9553,3.9553,3.9594,3.9528,3.952,3.9523,3.9515,3.9497,3.9491,3.9462,3.9496,3.9499,3.9535,3.9458,3.9583,3.9588,3.9593,3.9671,3.9683,3.9694,0,0,0,0,0,3.9551,3.9601,3.9578,3.958,3.958,3.9596,3.9596,3.956,3.9526,3.9549,3.9529,3.9492,3.953,3.95,3.9503,3.954,3.958,3.9587,3.9593,3.9665,3.9681,3.9694,0,0,0,0,0,0,3.9631,3.9597,3.9571,3.9616,3.9609,3.9583,3.961,3.9578,3.9581,3.9574,3.9531,3.9528,3.9567,3.9557,3.9524,3.9598,3.9549,3.9556,3.9603,3.9618,3.9629,3.9631,3.9459,0,0,0,0,0,3.9653,3.9668,3.9639,3.9681,3.9679,3.9645,3.9651,3.9624,3.9616,3.9613,3.9596,3.959,3.9601,3.9609,3.9617,3.9669,3.9664,3.9696,3.9708,3.9718,3.9724,3.9751,3.9765,3.9616,3.9616,3.9616,0,0,3.97,3.9684,3.9696,3.9696,3.9688,3.9705,3.9643,3.9664,3.9676,3.9616,3.9646,3.9634,3.9625,3.9668,3.9686,3.966,3.9764,3.9725,3.9733,3.9735,3.9759,3.9773,3.9785,3.962,3.9619,3.9619,0,0,3.9795,3.9784,3.9818,3.981,3.9798,3.9776,3.9784,3.9763,3.9752,3.9781,3.9737,3.9751,3.977,3.9765,3.9765,3.9858,3.9824,3.9862,3.9923,3.9949,3.9961,3.9971,4.0004,4.0017,3.9869,3.9869,3.9869,0,3.9855,3.9878,3.9839,3.9862,3.9864,3.981,3.9843,3.9839,3.9831,3.9833,3.9805,3.9827,3.9817,3.9858,3.9881,3.9883,3.9891,3.9864,3.9963,3.9972,3.9981,4.0012,4.0025,3.9874,3.9873,3.9873,3.9872,0,3.9953,3.997,3.9998,3.9991,3.9995,4.0024,3.999,3.9999,3.9973,3.9953,3.9984,3.997,3.9974,3.9982,3.9957,4.002,4.0004,3.997,3.992,4.0001,4.0029,4.0041,3.988,3.9879,3.9877,3.9876,0,0,4.0097,4.0067,4.0078,4.0074,4.0057,4.0069,4.0096,4.0099,4.0108,4.0104,4.0126,4.0143,4.0111,4.0111,4.0085,4.0108,4.0182,4.0071,4.007,4.0092,4.0251,4.0277,4.0291,4.0159,4.0162,4.0163,4.0252,0,4.0186,4.0228,4.0194,4.0243,4.0258,4.0207,4.023,4.0222,4.0205,4.0216,4.0197,4.021,4.0167,4.0167,4.0188,4.0169,4.0214,4.0162,4.0179,4.018,4.0183,4.0306,4.0333,4.0417,4.0262,4.0264,4.0266,0,4.0296,4.0296,4.0347,4.0326,4.0331,4.0352,4.0352,4.0363,4.0354,4.0339,4.034,4.0307,4.0332,4.0283,4.0317,4.0282,4.0287,4.0279,4.0282,4.0282,4.0228,4.0309,4.0443,4.0455,4.0283,4.0281,4.028,0,4.0396,4.0409,4.044,4.0438,4.0415,4.0431,4.0422,4.041,4.0414,4.0415,4.0417,4.0421,4.0423,4.0428,4.0397,4.0364,4.0435,4.0383,4.0424,4.0425,4.0441,4.044,4.0578,4.0445,4.0445,4.0445,4.0444,0,4.0499,4.0532,4.0485,4.0504,4.0539,4.05,4.0536,4.0522,4.0512,4.0528,4.0484,4.0501,4.0459,4.0472,4.0448,4.048,4.0481,4.0471,4.0464,4.0474,4.0476,4.0477,4.047,4.0448,4.0447,4.0447,4.0446,0,4.0616,4.0586,4.0617,4.0592,4.0586,4.0614,4.0592,4.061,4.059,4.0611,4.0614,4.0582,4.0595,4.0564,4.0572,4.0556,4.0602,4.0586,4.0605,4.06,4.0642,4.0639,4.0785,4.0802,4.0659,4.0661,4.0662,0,4.0683,4.0707,4.0685,4.0692,4.0685,4.0698,4.0702,4.0664,4.067,4.0661,4.0679,4.0688,4.0692,4.0714,4.0693,4.0699,4.0683,4.0733,4.0683,4.0693,4.0683,4.0682,4.0684,4.0744,4.0746,4.0747,4.0748,0,4.0807,4.079,4.0797,4.0799,4.0804,4.0804,4.0801,4.081,4.0769,4.0778,4.079,4.0793,4.0801,4.081,4.0811,4.0803,4.0769,4.0764,4.0774,4.0785,4.0794,4.0789,4.0633,4.0761,4.076,4.0759,4.0758,4.0757,4.0901,4.0919,4.0906,4.0915,4.0909,4.0906,4.0921,4.0903,4.0911,4.0914,4.0892,4.0908,4.0898,4.0896,4.0891,4.0904,4.088,4.0895,4.0898,4.0902,4.0909,4.0793,4.0904,4.0903,4.0903,4.0903,4.0902,0,4.1021,4.101,4.1019,4.1015,4.1022,4.0989,4.0984,4.0992,4.1007,4.1,4.1005,4.1019,4.1027,4.1006,4.1012,4.1026,4.1011,4.1029,4.1027,4.1026,4.093,4.092,4.1041,4.1041,4.1041,4.1041,4.1041,4.1041,4.1085,4.1115,4.1097,4.1123,4.1112,4.1127,4.1126,4.1125,4.1119,4.1135,4.1142,4.1128,4.1115,4.112,4.1126,4.112,4.1124,4.1147,4.1136,4.1046,4.1033,4.102,4.1011,4.1149,4.1149,4.1231,4.1232,4.1233]}]]